sat.trackr.live / text

‹ back to catalog

STARLINK-35263

NORAD 65597 · 2025-207F

PAYLOAD ACTIVE UNKNOWN

§ Identity

Operator
Country
US
Launch date
2025-09-13
Launch site
AFWTR
Launch vehicle
Mass (kg)
RCS (m²)

Purposes: comms

External: N2YO · Heavens-Above · Gunter

§ Orbital elements

Epoch: 2026-09-20T22:00:03.000096Z

Period
93.90 min
Inclination
97.2851°
Eccentricity
0.0001294
Mean motion
15.33544538 rev/d
Perigee alt
464.4 km
Apogee alt
466.1 km
Semi-major
6,843.4 km
B*
-5.8937e-3
RAAN
326.3931°
Arg perigee
96.8461°
Mean anomaly
78.6881°
Rev number
559

§ Raw data

STARLINK-352631 65597U 25207F   26263.91670139 -.00186328  00000+0 -58937-2 0  99962 65597  97.2851 326.3931 0001294  96.8461  78.6881 15.33544538  5591

JSON: /api/v1/satellites/65597 · /tle

For live sub-satellite position, see the globe view (requires WebGL).

§ Visibility from observer

Set your observer location to see the next 7 days of passes ≥ 10°. The values pass through the URL so the page stays shareable.

No JS? Fill the form by hand. The geolocation button needs JavaScript.